Flag for Germany Weather past 2 weeks in Rheinberg, North Rhine-Westphalia, Germany

Now
57 °F

Overcast.


Feels Like: 57 °F
Forecast: 46 / 58 °F
Wind: 2 mph from Northwest

Location: Duesseldorf

Current Time: May 25, 2015 at 9:43:23 PM

Latest Report: May 25, 2015 at 9:00 PM


Visibility: 22 mi

Pressure: 29.99 "Hg

Humidity: 59%

Dew point: 42 °F

Location of RheinbergLocation

Historic Weather in Rheinberg — Graph

°F

Rheinberg temperature yesterday

Maximum temperature yesterday: 68 °F (at 6:00 PM)
Minimum temperature yesterday: 46 °F (at 3:00 AM)
Average temperature yesterday: 57 °F

Past Weeks' High & Low Weather Summary

 TemperatureHumidityPressure
High78 °F (May 11, 6:00 PM)99% (May 17, 2:00 AM)30.34 "Hg (May 17, 2:00 AM)
Low38 °F (May 21, 4:00 AM)36% (May 13, 4:00 PM)29.65 "Hg (May 18, 8:00 PM)
Average56 °F66%30.07 "Hg
* Reported May 10 8:00 PM — May 25 8:00 PM, Rheinberg, Weather by CustomWeather, © 2015

Note: Actual official high and low records may vary slightly from our data, if they occured in-between our weather recording intervals... More about our weather records

Advertising

Rheinberg weather history for previous 24 hours

 ConditionsComfort  
Time TempWeatherWind HumidityBarometerVisibility
8:00 PM
Mon, May 25
59 °FPartly sunny.3 mph55%29.98 "Hg19 mi
7:00 PM59 °FOvercast.5 mph56%29.97 "Hg19 mi
6:00 PM60 °FOvercast.6 mph55%29.97 "Hg19 mi
5:00 PM61 °FPartly sunny.3 mph52%29.97 "Hg19 mi
4:00 PM60 °FPartly sunny.3 mph59%29.97 "Hg19 mi
3:00 PM59 °FScattered clouds.2 mph66%29.98 "Hg19 mi
2:00 PM56 °FOvercast.3 mph72%29.99 "Hg16 mi
1:00 PM54 °FOvercast.3 mph77%30.00 "Hg16 mi
12:00 PM52 °FLow clouds.5 mph89%29.99 "Hg8 mi
10:00 AM53 °FRain. Low clouds.3 mph93%30.00 "Hg2 mi
9:00 AM53 °FRain. Overcast.2 mph88%30.01 "Hg4 mi
8:00 AM53 °FOvercast.1 mph85%30.00 "Hg12 mi
7:00 AM52 °FOvercast.2 mph86%30.01 "Hg12 mi
6:00 AM51 °FLight rain. Overcast.1 mph88%30.01 "Hg16 mi
4:00 AM50 °FOvercast.1 mph85%30.01 "Hg25 mi
3:00 AM48 °FPassing clouds.1 mph82%30.02 "Hg25 mi
2:00 AM47 °FPassing clouds.No wind84%30.03 "Hg25 mi
1:00 AM49 °FPassing clouds.1 mph83%30.04 "Hg25 mi
12:00 AM53 °FPassing clouds.1 mph72%30.04 "Hg25 mi
10:00 PM
Sun, May 24
55 °FPassing clouds.No wind70%30.03 "Hg22 mi
9:00 PM63 °FPassing clouds.1 mph49%30.03 "Hg22 mi
Weather by CustomWeather, © 2015

See weather overviewHow to use our weather pages